sat.trackr.live / text

‹ back to catalog

STARLINK-35702

NORAD 66876 · 2025-281AE

PAYLOAD ACTIVE UNKNOWN

§ Identity

Operator
Country
US
Launch date
2025-12-02
Launch site
AFETR
Launch vehicle
Mass (kg)
RCS (m²)

Purposes: comms

External: N2YO · Heavens-Above · Gunter

§ Orbital elements

Epoch: 2026-09-20T11:03:22.791744Z

Period
94.27 min
Inclination
43.0020°
Eccentricity
0.0001074
Mean motion
15.27594847 rev/d
Perigee alt
482.3 km
Apogee alt
483.7 km
Semi-major
6,861.1 km
B*
4.4807e-4
RAAN
323.4706°
Arg perigee
276.6404°
Mean anomaly
83.4325°
Rev number
4,596

§ Raw data

STARLINK-357021 66876U 25281AE  26263.46068046  .00012094  00000+0  44807-3 0  99952 66876  43.0020 323.4706 0001074 276.6404  83.4325 15.27594847 45961

JSON: /api/v1/satellites/66876 · /tle

For live sub-satellite position, see the globe view (requires WebGL).

§ Visibility from observer

Set your observer location to see the next 7 days of passes ≥ 10°. The values pass through the URL so the page stays shareable.

No JS? Fill the form by hand. The geolocation button needs JavaScript.